Fairbanks, AK

7:56 AM AKST on December 06, 2019 (GMT -0900)
Fairbanks International

Weather History for PAFA - May, 2019

Change the Weather History Date:

Friday, May 24, 2019

  Actual Average Record
Temperature  
Mean Temperature 58 °F 53 °F  
Max Temperature 66 °F 64 °F 89 °F (1960)
Min Temperature 49 °F 41 °F 28 °F (1931)
Degree Days  
Heating Degree Days 7 12  
Month to date heating degree days 306 409  
Since 1 July heating degree days 11568 13433  
Cooling Degree Days 0 0  
Month to date cooling degree days 0 0  
Year to date cooling degree days 0 0  
Growing Degree Days 8 (Base 50)    
Moisture  
Dew Point 45 °F    
Average Humidity 62    
Maximum Humidity 83    
Minimum Humidity 37    
Precipitation  
Precipitation 0.04 in 0.02 in 0.40 in (2018)
Month to date precipitation 0.68 0.43  
Year to date precipitation 3.16 1.99  
Snow  
Snow 0.00 in 0.10 in T in (1926)
Month to date snowfall T 0.9  
Since 1 July snowfall 57.5 65.0  
Snow Depth 0.00 in    
Sea Level Pressure  
Sea Level Pressure 30.09 in    
Wind  
Wind Speed 6 mph (SW)    
Max Wind Speed 13 mph    
Max Gust Speed 17 mph    
Visibility 10 miles    
Events Rain    
T = Trace of Precipitation, MM = Missing Value Source: NWS Daily Summary

Daily Weather History Graph

Daily Weather History Graph

Search for Another Location

Airport or City:

Astronomy

May. 24, 2019 Rise Set
Actual Time 3:58 AM AKDT 11:40 PM AKDT
Civil Twilight 2:20 AM AKDT 1:15 AM AKDT
Nautical Twilight Sun does not rise Sun does not rise
Astronomical Twilight Sun does not rise Sun does not rise
Moon 3:51 AM AKDT (5/24) 9:30 AM AKDT (5/24)
Length of Visible Light 22h 55m
Length of Day
19h 42m
Waning Gibbous, 67% of the Moon is Illuminated
May 24
Waning Gibbous
May 26
Last Quarter
Jun 3
New
Jun 9
First Quarter
Jun 17
Full

Hourly Weather History & Observations

Time (AKDT) Temp. Dew Point Humidity Pressure Visibility Wind Dir Wind Speed Gust Speed Precip Events Conditions
12:53 AM 55.9 °F 44.1 °F 64% 29.97 in 10.0 mi South 8.1 mph - N/A   Overcast
1:53 AM 55.0 °F 45.0 °F 69% 29.99 in 10.0 mi SSW 9.2 mph - N/A   Overcast
2:53 AM 53.1 °F 46.0 °F 77% 30.01 in 10.0 mi SSW 6.9 mph - 0.00 in Rain Light Rain
3:53 AM 53.1 °F 43.0 °F 69% 30.02 in 10.0 mi SSW 4.6 mph - 0.00 in Rain Light Rain
4:53 AM 52.0 °F 42.1 °F 69% 30.04 in 10.0 mi SSW 4.6 mph - 0.00 in Rain Light Rain
5:53 AM 51.1 °F 44.1 °F 77% 30.06 in 10.0 mi Variable 3.5 mph - 0.00 in Rain Light Rain
6:53 AM 50.0 °F 45.0 °F 83% 30.08 in 9.0 mi SSW 5.8 mph - 0.03 in Rain Light Rain
7:53 AM 51.1 °F 46.0 °F 83% 30.09 in 10.0 mi Variable 3.5 mph - 0.01 in Rain Light Rain
8:53 AM 52.0 °F 46.0 °F 80% 30.11 in 10.0 mi Calm Calm - 0.00 in   Overcast
9:53 AM 53.1 °F 46.0 °F 77% 30.13 in 10.0 mi Calm Calm - N/A   Overcast
10:30 AM 54.0 °F 46.0 °F 75% 30.12 in 10.0 mi SW 4.6 mph - N/A   Overcast
10:53 AM 55.0 °F 46.0 °F 72% 30.13 in 10.0 mi Variable 4.6 mph - N/A   Overcast
11:53 AM 57.0 °F 45.0 °F 64% 30.13 in 10.0 mi Variable 3.5 mph - N/A   Overcast
12:53 PM 59.0 °F 44.1 °F 58% 30.14 in 10.0 mi Variable 4.6 mph - N/A   Overcast
1:53 PM 60.1 °F 43.0 °F 53% 30.14 in 10.0 mi WSW 6.9 mph - N/A   Mostly Cloudy
2:53 PM 62.1 °F 44.1 °F 52% 30.14 in 10.0 mi WSW 12.7 mph 17.3 mph N/A   Mostly Cloudy
3:53 PM 64.0 °F 44.1 °F 48% 30.13 in 10.0 mi SW 10.4 mph 16.1 mph N/A   Mostly Cloudy
4:53 PM 64.0 °F 44.1 °F 48% 30.12 in 10.0 mi WSW 8.1 mph - N/A   Mostly Cloudy
5:53 PM 64.0 °F 43.0 °F 46% 30.12 in 10.0 mi SW 3.5 mph - N/A   Mostly Cloudy
6:53 PM 66.0 °F 43.0 °F 43% 30.11 in 10.0 mi Variable 3.5 mph - N/A   Mostly Cloudy
7:53 PM 64.0 °F 44.1 °F 48% 30.11 in 10.0 mi Variable 3.5 mph - N/A   Mostly Cloudy
8:53 PM 64.0 °F 44.1 °F 48% 30.11 in 10.0 mi Variable 3.5 mph - N/A   Scattered Clouds
9:53 PM 63.0 °F 44.1 °F 50% 30.11 in 10.0 mi NW 3.5 mph - N/A   Scattered Clouds
10:53 PM 57.9 °F 46.0 °F 65% 30.11 in 10.0 mi Calm Calm - N/A   Partly Cloudy
11:53 PM 53.1 °F 48.0 °F 83% 30.11 in 10.0 mi Calm Calm - N/A   Partly Cloudy